EN

Hourly Weather Barzyna

Today, 23 July, Friday

Time Temperature Precipitation Wind Pressure Humidity
00:00 +18°C° 0 mm 1 mps 756 mmHg 79%
01:00 +16°C° 0 mm 1 mps 756 mmHg 82%
02:00 +15°C° 0 mm 1 mps 756 mmHg 85%
03:00 +15°C° 0 mm 1 mps 756 mmHg 87%
04:00 +14°C° 0 mm 1 mps 756 mmHg 90%
05:00 +15°C° 0 mm 1 mps 756 mmHg 84%
06:00 +17°C° 0 mm 2 mps 756 mmHg 77%
07:00 +18°C° 0 mm 2 mps 756 mmHg 70%
08:00 +20°C° 0 mm 2 mps 756 mmHg 64%
09:00 +21°C° 0 mm 2 mps 756 mmHg 58%
10:00 +24°C° 0 mm 3 mps 756 mmHg 51%
11:00 +25°C° 0 mm 3 mps 755 mmHg 48%
12:00 +25°C° 0 mm 3 mps 755 mmHg 45%
13:00 +26°C° 0 mm 3 mps 755 mmHg 42%
14:00 +26°C° 0 mm 3 mps 755 mmHg 44%
15:00 +26°C° 0 mm 3 mps 755 mmHg 45%
16:00 +25°C° 0 mm 4 mps 754 mmHg 46%
17:00 +24°C° 0 mm 3 mps 755 mmHg 56%
18:00 +21°C° 0 mm 3 mps 755 mmHg 66%
19:00 +19°C° 0 mm 2 mps 755 mmHg 75%
20:00 +18°C° 0 mm 2 mps 755 mmHg 80%
21:00 +18°C° 0 mm 1 mps 755 mmHg 85%
22:00 +16°C° 0 mm 1 mps 755 mmHg 90%
23:00 +16°C° 0 mm 1 mps 755 mmHg 91%

Tomorrow, 24 July, Saturday

Time Temperature Precipitation Wind Pressure Humidity
00:00 +16°C° 0 mm 1 mps 755 mmHg 93%
01:00 +15°C° 0 mm 1 mps 755 mmHg 94%
02:00 +14°C° 0 mm 0 mps 755 mmHg 94%
03:00 +14°C° 0 mm 0 mps 755 mmHg 94%
04:00 +14°C° 0 mm 0 mps 755 mmHg 95%
05:00 +18°C° 0 mm 1 mps 755 mmHg 90%
06:00 +19°C° 0 mm 1 mps 755 mmHg 85%
07:00 +21°C° 0 mm 1 mps 755 mmHg 81%
08:00 +21°C° 0 mm 2 mps 755 mmHg 73%
09:00 +24°C° 0 mm 2 mps 756 mmHg 66%
10:00 +25°C° 0 mm 2 mps 756 mmHg 59%
11:00 +25°C° 0 mm 2 mps 755 mmHg 56%
12:00 +26°C° 0 mm 2 mps 755 mmHg 53%
13:00 +26°C° 0 mm 2 mps 755 mmHg 50%
14:00 +26°C° 0 mm 2 mps 755 mmHg 52%
15:00 +26°C° 0 mm 2 mps 755 mmHg 55%
16:00 +25°C° 0 mm 2 mps 755 mmHg 57%
17:00 +24°C° 0 mm 2 mps 755 mmHg 62%
18:00 +23°C° 0 mm 2 mps 755 mmHg 67%
19:00 +21°C° 0 mm 2 mps 755 mmHg 72%
20:00 +20°C° 0 mm 2 mps 755 mmHg 74%
21:00 +19°C° 0 mm 2 mps 755 mmHg 76%
22:00 +18°C° 0 mm 2 mps 755 mmHg 79%
23:00 +18°C° 0 mm 2 mps 755 mmHg 79%

Day after tomorrow, 25 July, Sunday

Time Temperature Precipitation Wind Pressure Humidity
00:00 +18°C° 0 mm 2 mps 755 mmHg 79%
01:00 +17°C° 0 mm 2 mps 755 mmHg 79%
02:00 +17°C° 0 mm 2 mps 755 mmHg 79%
03:00 +17°C° 0 mm 2 mps 755 mmHg 80%
04:00 +17°C° 0 mm 2 mps 755 mmHg 80%
05:00 +19°C° 0 mm 2 mps 755 mmHg 76%
06:00 +20°C° 0 mm 2 mps 755 mmHg 72%
07:00 +22°C° 0 mm 3 mps 755 mmHg 68%
08:00 +24°C° 0 mm 3 mps 755 mmHg 61%
09:00 +26°C° 0 mm 4 mps 755 mmHg 53%
10:00 +28°C° 0 mm 4 mps 755 mmHg 46%
11:00 +28°C° 0 mm 4 mps 755 mmHg 44%
12:00 +29°C° 0 mm 4 mps 755 mmHg 41%
13:00 +29°C° 0 mm 4 mps 755 mmHg 39%
14:00 +29°C° 0 mm 4 mps 754 mmHg 43%
15:00 +28°C° 0 mm 4 mps 754 mmHg 46%
16:00 +27°C° 0 mm 4 mps 754 mmHg 50%
17:00 +26°C° 0 mm 4 mps 754 mmHg 54%
18:00 +25°C° 0 mm 4 mps 754 mmHg 58%
19:00 +23°C° 0 mm 4 mps 754 mmHg 62%
20:00 +23°C° 0 mm 4 mps 754 mmHg 63%
21:00 +23°C° 0 mm 4 mps 754 mmHg 63%
22:00 +22°C° 0 mm 4 mps 754 mmHg 64%
23:00 +22°C° 0 mm 4 mps 754 mmHg 65%

26 July, Monday

Time Temperature Precipitation Wind Pressure Humidity
00:00 +21°C° 0 mm 4 mps 754 mmHg 67%
01:00 +21°C° 0 mm 4 mps 754 mmHg 69%
02:00 +20°C° 0 mm 4 mps 754 mmHg 72%
03:00 +20°C° 0 mm 4 mps 754 mmHg 75%
04:00 +19°C° 0 mm 4 mps 754 mmHg 79%
05:00 +20°C° 0 mm 4 mps 754 mmHg 77%
06:00 +21°C° 0 mm 4 mps 754 mmHg 74%
07:00 +21°C° 0 mm 5 mps 754 mmHg 72%
08:00 +22°C° 0 mm 5 mps 754 mmHg 69%
09:00 +23°C° 0 mm 5 mps 754 mmHg 66%
10:00 +24°C° 0 mm 6 mps 753 mmHg 62%
11:00 +26°C° 0 mm 6 mps 753 mmHg 57%
12:00 +28°C° 0 mm 6 mps 753 mmHg 52%
13:00 +30°C° 0 mm 6 mps 752 mmHg 47%
14:00 +30°C° 0 mm 5 mps 752 mmHg 49%
15:00 +30°C° 0 mm 5 mps 752 mmHg 51%
16:00 +29°C° 0 mm 4 mps 752 mmHg 53%
17:00 +28°C° 0.3 mm 4 mps 751 mmHg 59%
18:00 +27°C° 0.3 mm 4 mps 751 mmHg 66%
19:00 +25°C° 0.3 mm 4 mps 751 mmHg 72%
20:00 +24°C° 0.1 mm 3 mps 751 mmHg 77%
21:00 +22°C° 0.1 mm 3 mps 752 mmHg 82%
22:00 +21°C° 0.1 mm 3 mps 752 mmHg 87%
23:00 +20°C° 0.4 mm 3 mps 752 mmHg 89%

27 July, Tuesday

Time Temperature Precipitation Wind Pressure Humidity
00:00 +20°C° 0.4 mm 2 mps 752 mmHg 91%
01:00 +20°C° 0.4 mm 2 mps 752 mmHg 92%
02:00 +19°C° 0.2 mm 2 mps 752 mmHg 92%
03:00 +20°C° 0.2 mm 1 mps 752 mmHg 92%
04:00 +20°C° 0.2 mm 1 mps 752 mmHg 93%
05:00 +21°C° 0 mm 1 mps 752 mmHg 87%
06:00 +23°C° 0 mm 1 mps 752 mmHg 82%
07:00 +24°C° 0 mm 1 mps 752 mmHg 76%
08:00 +26°C° 0 mm 1 mps 752 mmHg 69%
09:00 +27°C° 0 mm 1 mps 752 mmHg 62%
10:00 +29°C° 0 mm 2 mps 752 mmHg 55%
11:00 +29°C° 0 mm 2 mps 752 mmHg 52%
12:00 +30°C° 0 mm 2 mps 752 mmHg 49%
13:00 +31°C° 0 mm 2 mps 752 mmHg 46%
14:00 +30°C° 0 mm 2 mps 752 mmHg 51%
15:00 +29°C° 0 mm 3 mps 752 mmHg 56%
16:00 +28°C° 0 mm 3 mps 752 mmHg 61%
17:00 +26°C° 0.1 mm 3 mps 752 mmHg 68%
18:00 +25°C° 0.1 mm 3 mps 752 mmHg 76%
19:00 +24°C° 0.1 mm 3 mps 751 mmHg 83%
20:00 +22°C° 0.3 mm 3 mps 751 mmHg 86%
21:00 +21°C° 0.3 mm 2 mps 752 mmHg 90%
22:00 +20°C° 0.3 mm 2 mps 752 mmHg 94%
23:00 +20°C° 0.7 mm 2 mps 752 mmHg 94%

28 July, Wednesday

Time Temperature Precipitation Wind Pressure Humidity
00:00 +21°C° 0.7 mm 1 mps 751 mmHg 94%
01:00 +20°C° 0.7 mm 1 mps 751 mmHg 95%
02:00 +20°C° 0.6 mm 1 mps 751 mmHg 95%
03:00 +20°C° 0.6 mm 1 mps 751 mmHg 95%
04:00 +19°C° 0.6 mm 2 mps 750 mmHg 96%
05:00 +19°C° 0.1 mm 2 mps 750 mmHg 94%
06:00 +20°C° 0.1 mm 2 mps 750 mmHg 93%
07:00 +20°C° 0.1 mm 2 mps 750 mmHg 91%
08:00 +20°C° 0.3 mm 2 mps 751 mmHg 90%
09:00 +20°C° 0.3 mm 2 mps 751 mmHg 88%
10:00 +20°C° 0.3 mm 2 mps 751 mmHg 87%
11:00 +20°C° 0.1 mm 2 mps 751 mmHg 85%
12:00 +20°C° 0.1 mm 2 mps 751 mmHg 82%
13:00 +21°C° 0.1 mm 2 mps 751 mmHg 79%
14:00 +21°C° 0.2 mm 2 mps 751 mmHg 81%
15:00 +20°C° 0.2 mm 2 mps 751 mmHg 83%
16:00 +20°C° 0.2 mm 2 mps 751 mmHg 84%
17:00 +20°C° 0.5 mm 3 mps 751 mmHg 85%
18:00 +20°C° 0.5 mm 3 mps 751 mmHg 86%
19:00 +20°C° 0.5 mm 3 mps 751 mmHg 87%
20:00 +19°C° 0.2 mm 3 mps 751 mmHg 89%
21:00 +18°C° 0.2 mm 3 mps 751 mmHg 91%
22:00 +17°C° 0.2 mm 3 mps 751 mmHg 93%
23:00 +17°C° 0 mm 3 mps 752 mmHg 94%
Show more

We Need Your Consent

Meteoprog and our Service Providers may store and access personal data such as cookies, device identifiers or other similar technologies on your device and process such data to personalise content and ads, as well as provide social media features and to analyse the traffic.

  • Store and/or access information on your device

    Cookies, device identifiers or other information can be stored or accessed on your device for the purposes indicated above.

  • Personalised ads and content, ad and content measurement, audience insights, and products development

    Ads and content can be personalised based on a profile. More data can be added to better personalise ads and content. Ad and content performance can be measured. Insights about the audience who saw the ads and content can be derived. Such data can be used to develop or improve user’s experience, systems and software.

By clicking ‘I Agree’ you will allow the use of indicated cookies, device identifiers, web beacons or other similar technologies. Your settings can be changed in the browser on your device.

For certain purposes, legitimate interests may be relied on, rather than consent. You can read more about this in our Privacy and Cookie Policy.